Fort Polk, LA

2:36 PM CDT on April 27, 2017 (GMT -0500)
Polk Army Air Field

Weather History for KPOE - December, 2013

Change the Weather History Date:

Friday, December 20, 2013

  Actual Average Record
Temperature  
Mean Temperature 70 °F -  
Max Temperature 73 °F 56 °F 77 °F (1998)
Min Temperature 66 °F 36 °F 19 °F (1996)
Cooling Degree Days 4    
Growing Degree Days 20 (Base 50)    
Moisture  
Dew Point 67 °F    
Average Humidity 90    
Maximum Humidity 100    
Minimum Humidity 81    
Precipitation  
Precipitation 0.02 in - - ()
Sea Level Pressure  
Sea Level Pressure 29.91 in    
Wind  
Wind Speed 11 mph (South)    
Max Wind Speed 15 mph    
Max Gust Speed 23 mph    
Visibility 10 miles    
Events Rain    
Averages and records for this station are not official NWS values.
T = Trace of Precipitation, MM = Missing Value Source: NWS Daily Summary

Daily Weather History Graph

Daily Weather History Graph

Search for Another Location

Airport or City:

Trip Planner

Search our weather history database for the weather conditions in past years. The results will help you decide how hot, cold, wet, or windy it might be!

Date:

Astronomy

Dec. 20, 2013 Rise Set
Actual Time 7:06 AM CST 5:14 PM CST
Civil Twilight 6:39 AM CST 5:41 PM CST
Nautical Twilight 6:09 AM CST 6:11 PM CST
Astronomical Twilight 5:40 AM CST 6:41 PM CST
Moon 8:24 PM CST (12/20) 9:10 AM CST (12/20)
Length of Visible Light 11h 01m
Length of Day
10h 08m
Waning Gibbous, 90% of the Moon is Illuminated
Dec 20
Waning Gibbous
Dec 25
Last Quarter
Jan 1
New
Jan 7
First Quarter
Jan 15
Full

Hourly Weather History & Observations

Time (CST) Temp. Dew Point Humidity Pressure Visibility Wind Dir Wind Speed Gust Speed Precip Events Conditions
12:32 AM 66.2 °F 62.6 °F 88% 29.94 in 10.0 mi South 9.2 mph - N/A   Overcast
12:55 AM 66.0 °F 63.0 °F 90% 29.94 in 10.0 mi SSE 10.4 mph - N/A   Overcast
1:55 AM 66.9 °F 64.0 °F 90% 29.94 in 10.0 mi South 12.7 mph - 0.00 in   Overcast
2:55 AM 66.9 °F 64.0 °F 90% 29.93 in 10.0 mi South 10.4 mph - N/A   Overcast
3:55 AM 68.0 °F 64.9 °F 90% 29.94 in 10.0 mi South 11.5 mph - N/A   Overcast
4:55 AM 68.0 °F 64.9 °F 90% 29.94 in 10.0 mi South 11.5 mph 19.6 mph N/A   Overcast
5:55 AM 68.0 °F 64.9 °F 90% 29.94 in 10.0 mi SSE 11.5 mph - N/A   Overcast
6:12 AM 66.2 °F 64.4 °F 94% 29.93 in 9.0 mi South 13.8 mph - 0.01 in Rain Light Rain
6:22 AM 66.2 °F 66.2 °F 100% 29.93 in 8.0 mi South 9.2 mph - 0.01 in Rain Light Rain
6:42 AM 66.2 °F 66.2 °F 100% 29.93 in 9.0 mi South 4.6 mph - 0.01 in   Overcast
6:55 AM 66.9 °F 66.0 °F 97% 29.94 in 9.0 mi South 9.2 mph - 0.01 in   Overcast
7:55 AM 68.0 °F 66.0 °F 93% 29.95 in 8.0 mi South 9.2 mph - N/A   Overcast
8:45 AM 68.0 °F 66.2 °F 94% 29.96 in 10.0 mi South 10.4 mph - N/A   Overcast
8:55 AM 69.1 °F 66.0 °F 90% 29.97 in 10.0 mi South 8.1 mph - N/A   Overcast
9:55 AM 70.0 °F 66.9 °F 90% 29.97 in 9.0 mi South 10.4 mph 19.6 mph N/A   Overcast
10:05 AM 71.6 °F 66.2 °F 83% 29.96 in 9.0 mi South 12.7 mph - N/A   Overcast
10:55 AM 72.0 °F 66.9 °F 84% 29.96 in 10.0 mi South 12.7 mph - N/A   Overcast
11:44 AM 73.4 °F 68.0 °F 83% 29.93 in 10.0 mi South 10.4 mph 18.4 mph N/A   Overcast
11:55 AM 73.0 °F 68.0 °F 84% 29.92 in 10.0 mi South 12.7 mph 21.9 mph N/A   Overcast
12:55 PM 73.9 °F 68.0 °F 82% 29.90 in 10.0 mi South 10.4 mph - N/A   Overcast
1:55 PM 73.9 °F 68.0 °F 82% 29.88 in 10.0 mi South 12.7 mph - N/A   Overcast
2:55 PM 73.0 °F 66.9 °F 81% 29.89 in 10.0 mi South 8.1 mph - 0.00 in   Overcast
3:55 PM 72.0 °F 68.0 °F 87% 29.88 in 10.0 mi South 5.8 mph - 0.00 in   Overcast
4:55 PM 72.0 °F 68.0 °F 87% 29.88 in 10.0 mi South 9.2 mph - 0.01 in Rain Light Rain
5:31 PM 71.6 °F 68.0 °F 88% 29.88 in 10.0 mi SSE 8.1 mph - 0.00 in   Overcast
5:55 PM 72.0 °F 68.0 °F 87% 29.88 in 10.0 mi South 10.4 mph - 0.00 in Rain Light Rain
6:55 PM 71.1 °F 68.0 °F 90% 29.87 in 10.0 mi South 9.2 mph 19.6 mph 0.00 in   Overcast
7:55 PM 71.1 °F 68.0 °F 90% 29.87 in 10.0 mi SSE 12.7 mph - N/A   Overcast
8:55 PM 70.0 °F 68.0 °F 93% 29.86 in 10.0 mi SSE 13.8 mph 23.0 mph N/A   Overcast
9:55 PM 70.0 °F 68.0 °F 93% 29.86 in 10.0 mi SSE 13.8 mph 21.9 mph 0.00 in   Overcast
10:52 PM 69.8 °F 68.0 °F 94% 29.85 in 10.0 mi South 13.8 mph 23.0 mph 0.00 in   Overcast
10:55 PM 71.1 °F 68.0 °F 90% 29.86 in 10.0 mi SSE 13.8 mph 23.0 mph 0.00 in   Overcast
11:55 PM 70.0 °F 68.0 °F 93% 29.85 in 10.0 mi South 15.0 mph 21.9 mph 0.00 in Rain Light Rain